Location: *
(38.9555°S, 57.3572°E)
Time: 00:51:19
(UTC+00:00)

DMSP B5D2-2 - Pass Details

Date: 15 July 2020
Orbit: 789 x 807 km, 98.3° (Epoch: 06 August)

Event Time Altitude Azimuth Distance (km) Brightness Sun altitude
Rises 15:14:45 0° 15° (NNE) 3,282 7.2 -24.3°
Reaches altitude 10° 15:17:03 10° 15° (NNE) 2,363 6.5 -24.7°
Maximum altitude 15:22:17 89° 108° (ESE) 811 4.0 -25.7°
Drops below altitude 10° 15:27:38 10° 193° (SSW) 2,406 6.6 -26.7°
Sets 15:29:59 0° 192° (SSW) 3,346 7.4 -27.2°
